Content
SEND FEEDBACK

Daily
Averages
Monthly
Summary
United States of America

NORTHPORT, ALABAMA


Home > North America > United States > Alabama
Elevation: 142 feet     Latitude: 33 13N     Longitude: 087 35W

WEATHER
 
SELECT A DAY
Number of Records: 197,292;   Date Range: 1/1/95 - 8/28/14
 
SHARE

PRINT THIS DATA

[ ← Previous Day ]
WEATHER ALMANAC - JANUARY 31, 2013
[ Next Day → ]
[ °C ]   °F
Weather ElementAverageHighLow
Temperature43.7 °F54 °F (2:53 pm)35.1 °F (6:53 am)
Dewpoint28.7 °F33.1 °F (9:53 pm)25 °F (3:53 pm)
Humidity58 %79 % (7:53 am)33 % (3:53 pm)
Barometer30.19 in30.25 in (9:53 am)30.09 in (1:53 am)
Wind Speed6 mph13.8 mph (2:53 pm)
Wind Gust17.3 mph (2:53 pm)
Weather ElementAverage
Visibility10 mi
Wind DirectionSSW (205.2 °)

Weather ElementTotal
Precipitation---
Heating Degree Days20.5 (Base 65)
Averaged from 21 records on January 31, 2013
WEATHER CONDITIONS BREAKOUT
WIND DIRECTION BREAKOUT
WEATHER BY HOUR - JANUARY 31, 2013
[ °C ]   °F
Local TimeTemperatureDewpointHumidityBarometerVisibilityWind DirectionWind SpeedGust SpeedPrecipitationEventsConditions
1:53 AM39.9 °F26.1 °F58 %30.09 in10.0 miWNW (300°)6.9 mphClear
2:53 AM37.0 °F27.0 °F67 %30.12 in10.0 miWSW (250°)5.8 mphClear
3:53 AM36.0 °F28.0 °F73 %30.12 in10.0 miSW (230°)5.8 mphClear
4:53 AM36.0 °F28.9 °F76 %30.13 in10.0 miSW (230°)3.5 mphClear
5:53 AM36.0 °F28.0 °F73 %30.15 in10.0 miWest (270°)5.8 mphClear
6:53 AM35.1 °F28.0 °F76 %30.16 in10.0 miNNW (330°)3.5 mphClear
7:53 AM36.0 °F30.0 °F79 %30.20 in10.0 miWest (260°)6.9 mphClear
8:53 AM41.0 °F30.0 °F65 %30.22 in10.0 miWest (280°)6.9 mphClear
9:53 AM44.1 °F30.0 °F58 %30.25 in10.0 miWSW (250°)9.2 mphClear
10:53 AM46.9 °F30.0 °F52 %30.25 in10.0 miWSW (250°)9.2 mphClear
11:53 AM48.9 °F28.0 °F44 %30.23 in10.0 miVariable6.9 mph16.1 mphClear
12:53 PM52.0 °F27.0 °F38 %30.20 in10.0 miVariable6.9 mphClear
1:53 PM53.1 °F26.1 °F35 %30.19 in10.0 miWest (280°)9.2 mphClear
2:53 PM54.0 °F27.0 °F35 %30.19 in10.0 miWest (260°)13.8 mph17.3 mphClear
3:53 PM54.0 °F25.0 °F33 %30.19 in10.0 miWest (280°)6.9 mphClear
4:53 PM52.0 °F27.0 °F38 %30.18 in10.0 miWSW (240°)6.9 mphClear
6:53 PM46.0 °F32.0 °F58 %30.19 in10.0 miSouth (190°)4.6 mphClear
7:53 PM45.0 °F28.9 °F53 %30.20 in10.0 miSW (230°)3.5 mphClear
8:53 PM42.1 °F30.9 °F65 %30.22 in10.0 miCalmClear
9:53 PM39.9 °F33.1 °F77 %30.23 in10.0 miSouth (180°)4.6 mphClear
10:53 PM42.1 °F30.9 °F65 %30.24 in10.0 miCalmClear
Hourly data recorded from KTCL, located miles away from Northport, Alabama







STORIES FROM OUR PARTNERS